Home   Weather   Post Falls   Past weeks

Flag for USA Past Weather in Post Falls, Idaho, USA — Yesterday and Last 2 Weeks

46 °F


Feels Like: 46 °F
Forecast: 48 / 54 °F
Wind: No wind

Location: Coeur d'Alene Weather Reporting System

Current Time: Oct 27, 2016 at 8:10:43 AM

Latest Report: Oct 27, 2016 at 6:56 AM

Visibility: 0 mi

Pressure: 29.96 "Hg (27.63 "Hg at 664m altitude)

Humidity: 96%

Dew Point: 45 °F

Location of Post FallsLocation

Past Weather in Post Falls — Graph


Post Falls Temperature Yesterday

Maximum temperature yesterday: 47 °F (at 11:56 AM)
Minimum temperature yesterday: 45 °F (at 1:56 AM)
Average temperature yesterday: 46 °F

High & Low Weather Summary for the Past Weeks

High59 °F (Oct 24, 1:56 PM)100% (Oct 21, 4:56 AM)30.50 "Hg (Oct 21, 4:56 AM)
Low33 °F (Oct 12, 7:56 AM)37% (Oct 12, 2:56 PM)29.44 "Hg (Oct 15, 9:56 PM)
Average47 °F83%29.95 "Hg
* Reported Oct 12 7:56 AM — Oct 27 6:56 AM, Post Falls, Weather by CustomWeather, © 2016

Note: Actual official high and low records may vary slightly from our data, if they occured in-between our weather recording intervals... More about our weather records


Post Falls Weather History for the Previous 24 Hours

Scroll right to see more
Time TempWeatherWind HumidityBarometerVisibility
6:56 AM
Thu, Oct 27
46 °FFog.No wind96%29.96 "Hg0 mi
5:56 AM46 °FFog.6 mph96%29.93 "Hg5 mi
4:56 AM46 °FFog.6 mph96%29.92 "Hg1 mi
3:56 AM45 °FFog.5 mph100%29.93 "Hg1 mi
2:56 AM46 °FFog.5 mph96%29.95 "Hg2 mi
1:56 AM46 °FFog.8 mph100%29.95 "Hg1 mi
12:56 AM46 °FFog.9 mph100%29.95 "Hg1 mi
11:56 PM
Wed, Oct 26
46 °FFog.10 mph100%29.95 "Hg2 mi
10:56 PM47 °FPassing clouds.14 mph97%29.97 "Hg10 mi
9:56 PM46 °FLow clouds.10 mph100%30.00 "Hg9 mi
8:56 PM46 °FPassing clouds.10 mph96%30.00 "Hg10 mi
7:56 PM46 °FLight rain. Low clouds.9 mph96%30.03 "Hg10 mi
6:56 PM46 °FLight rain. Low clouds.8 mph96%30.04 "Hg10 mi
5:56 PM46 °FLight rain. Mostly cloudy.10 mph96%30.05 "Hg9 mi
4:56 PM47 °FLight rain. Low clouds.9 mph97%30.06 "Hg8 mi
3:56 PM47 °FLight rain. Mostly cloudy.10 mph97%30.05 "Hg10 mi
2:56 PM47 °FLight rain. Low clouds.12 mph97%30.04 "Hg10 mi
1:56 PM47 °FLight rain. Overcast.10 mph97%30.06 "Hg10 mi
12:56 PM47 °FRain. Overcast.12 mph93%30.06 "Hg9 mi
11:56 AM47 °FRain. Cloudy.9 mph93%30.08 "Hg8 mi
10:56 AM46 °FLight rain. Overcast.8 mph96%30.10 "Hg8 mi
9:56 AM46 °FLight rain. Overcast.9 mph96%30.11 "Hg8 mi
8:56 AM46 °FCloudy.12 mph93%30.11 "Hg10 mi
Weather by CustomWeather, © 2016

See weather overviewHow to use our weather pages